Location: Arcizac
(43.0933°N, 0.0112°E)
Time: 00:51:07
(UTC+00:00)

Cosmos 1954 Rocket - Pass Details

Date: 14 December 2019
Orbit: 751 x 782 km, 74.0° (Epoch: 19 January)

Event Time Altitude Azimuth Distance (km) Brightness Sun altitude
Rises 18:01:09 0° 193° (SSW) 3,186 7.6 -16.8°
Reaches altitude 10° 18:03:30 10° 192° (SSW) 2,268 6.8 -17.2°
Maximum altitude 18:08:37 74° 108° (ESE) 788 3.9 -18.1°
Enters shadow 18:12:08 21° 26° (NNE) 1,665 5.4 -18.7°
